Weather History for Coffeyville, KS

Change the Weather History Date:

Monday, January 28, 2013

  Actual Average Record
Temperature  
Mean Temperature 67 °F -  
Max Temperature 75 °F 43 °F 75 °F (2013)
Min Temperature 59 °F 24 °F 0 °F (1997)
Cooling Degree Days 2    
Growing Degree Days 17 (Base 50)    
Moisture  
Dew Point 60 °F    
Average Humidity 79    
Maximum Humidity 94    
Minimum Humidity 58    
Precipitation  
Precipitation 0.00 in - - ()
Sea Level Pressure  
Sea Level Pressure 29.81 in    
Wind  
Wind Speed 17 mph (South)    
Max Wind Speed 24 mph    
Max Gust Speed 36 mph    
Visibility 10 miles    
Events      
Averages and records for this station are not official NWS values.
T = Trace of Precipitation, MM = Missing Value Source: NWS Daily Summary

Daily Weather History Graph

Daily Weather History Graph

Search for Another Location

Airport:

Trip Planner

Search our weather history database for the weather conditions in past years. The results will help you decide how hot, cold, wet, or windy it might be!

Date:

Astronomy

Jan. 28, 2013 Rise Set
Actual Time 7:27 AM CST 5:43 PM CST
Civil Twilight 7:00 AM CST 6:10 PM CST
Nautical Twilight 6:28 AM CST 6:42 PM CST
Astronomical Twilight 5:58 AM CST 7:12 PM CST
Moon 7:34 PM CST (1/28) 7:57 AM CST (1/28)
Length of Visible Light 11h 10m
Length of Day
10h 15m
Full, 98% of the Moon is Illuminated
Jan 28
Full
Feb 3
Last Quarter
Feb 10
New
Feb 17
First Quarter
Feb 25
Full

Hourly Weather History & Observations

Time (CST) Temp. Dew Point Humidity Pressure Visibility Wind Dir Wind Speed Gust Speed Precip Events Conditions
12:52 AM 59.0 °F 55.9 °F 90% 29.86 in 8.0 mi South 20.7 mph 26.5 mph N/A   Clear
1:52 AM 59.0 °F 55.9 °F 90% 29.86 in 9.0 mi South 12.7 mph - N/A   Partly Cloudy
2:52 AM 59.0 °F 55.9 °F 90% 29.85 in 9.0 mi South 13.8 mph - N/A   Mostly Cloudy
3:52 AM 59.0 °F 55.9 °F 90% 29.84 in 9.0 mi South 13.8 mph - N/A   Partly Cloudy
4:52 AM 60.1 °F 57.0 °F 90% 29.85 in 9.0 mi South 11.5 mph - N/A   Overcast
5:52 AM 60.1 °F 57.0 °F 90% 29.85 in 8.0 mi South 12.7 mph - N/A   Mostly Cloudy
6:52 AM 60.1 °F 57.9 °F 93% 29.86 in 8.0 mi South 10.4 mph - N/A   Partly Cloudy
7:22 AM 60.8 °F 59.0 °F 94% 29.87 in 8.0 mi South 12.7 mph - N/A   Mostly Cloudy
7:52 AM 62.1 °F 60.1 °F 93% 29.87 in 8.0 mi South 12.7 mph - N/A   Mostly Cloudy
8:52 AM 64.9 °F 61.0 °F 87% 29.88 in 10.0 mi SSW 15.0 mph 24.2 mph N/A   Overcast
9:52 AM 66.0 °F 62.1 °F 87% 29.88 in 10.0 mi SSW 17.3 mph 24.2 mph N/A   Overcast
10:52 AM 70.0 °F 62.1 °F 76% 29.88 in 10.0 mi SSW 20.7 mph - N/A   Overcast
11:30 AM 71.6 °F 62.6 °F 73% 29.88 in 10.0 mi SSW 19.6 mph 26.5 mph N/A   Overcast
11:52 AM 73.0 °F 61.0 °F 66% 29.86 in 10.0 mi SSW 21.9 mph 32.2 mph N/A   Overcast
12:52 PM 75.9 °F 60.1 °F 58% 29.82 in 10.0 mi South 24.2 mph 35.7 mph N/A   Mostly Cloudy
1:52 PM 75.0 °F 60.1 °F 60% 29.79 in 10.0 mi South 23.0 mph 29.9 mph N/A   Overcast
2:52 PM 73.9 °F 60.1 °F 62% 29.78 in 10.0 mi South 18.4 mph 28.8 mph N/A   Mostly Cloudy
4:52 PM 73.0 °F 60.1 °F 64% 29.75 in 10.0 mi South 20.7 mph 31.1 mph N/A   Scattered Clouds
5:52 PM 71.1 °F 60.1 °F 68% 29.74 in 10.0 mi South 19.6 mph 31.1 mph N/A   Scattered Clouds
6:52 PM 70.0 °F 61.0 °F 73% 29.74 in 10.0 mi South 18.4 mph 29.9 mph N/A   Clear
7:52 PM 69.1 °F 61.0 °F 75% 29.74 in 10.0 mi South 21.9 mph - N/A   Clear
8:52 PM 69.1 °F 61.0 °F 75% 29.74 in 10.0 mi South 21.9 mph 32.2 mph N/A   Clear
9:52 PM 70.0 °F 62.1 °F 76% 29.74 in 10.0 mi South 24.2 mph 34.5 mph N/A   Overcast
10:52 PM 70.0 °F 62.1 °F 76% 29.73 in 10.0 mi South 24.2 mph 29.9 mph N/A   Mostly Cloudy
11:42 PM 69.8 °F 60.8 °F 73% 29.72 in 10.0 mi South 20.7 mph 31.1 mph N/A   Overcast
11:52 PM 69.1 °F 61.0 °F 75% 29.70 in 10.0 mi South 20.7 mph 31.1 mph N/A   Mostly Cloudy